Time,TemperatureF,DewpointF,PressureIn,WindDirection,WindDirectionDegrees,WindSpeedMPH,WindSpeedGustMPH,Humidity,HourlyPrecipIn,Conditions,Clouds,dailyrainin,SoftwareType,DateUTC
2013-09-12 00:01:00,70.0,64.0,30.04,SSE,157,4.0,6.0,83,0.00,,,0.00,Rainwise IP-100,2013-09-12 04:01:00,
2013-09-12 00:06:00,70.0,64.0,30.04,SSW,202,2.0,8.0,82,0.00,,,0.00,Rainwise IP-100,2013-09-12 04:06:00,
2013-09-12 00:11:00,70.0,64.0,30.03,SSE,157,4.0,8.0,82,0.00,,,0.00,Rainwise IP-100,2013-09-12 04:11:00,
2013-09-12 00:16:00,70.0,64.0,30.03,South,180,6.0,9.0,81,0.00,,,0.00,Rainwise IP-100,2013-09-12 04:16:00,
2013-09-12 00:21:00,70.0,64.0,30.02,South,180,6.0,9.0,82,0.00,,,0.00,Rainwise IP-100,2013-09-12 04:21:00,
2013-09-12 00:26:00,70.0,63.0,30.02,SSW,202,7.0,9.0,80,0.00,,,0.00,Rainwise IP-100,2013-09-12 04:26:00,
2013-09-12 00:31:00,71.0,64.0,30.01,South,180,7.0,9.0,79,0.00,,,0.00,Rainwise IP-100,2013-09-12 04:31:00,
2013-09-12 00:36:00,71.0,64.0,30.01,SW,225,5.0,8.0,79,0.00,,,0.00,Rainwise IP-100,2013-09-12 04:36:00,
2013-09-12 00:41:00,71.0,63.0,29.99,South,180,10.0,14.0,76,0.00,,,0.00,Rainwise IP-100,2013-09-12 04:41:00,
2013-09-12 00:46:00,71.0,63.0,29.99,South,180,5.0,12.0,76,0.00,,,0.00,Rainwise IP-100,2013-09-12 04:46:00,
2013-09-12 00:51:00,71.0,63.0,29.99,SW,225,4.0,7.0,77,0.00,,,0.00,Rainwise IP-100,2013-09-12 04:51:00,
2013-09-12 00:56:00,71.0,63.0,29.99,SSW,202,8.0,10.0,77,0.00,,,0.00,Rainwise IP-100,2013-09-12 04:56:00,
2013-09-12 01:01:00,71.0,63.0,30.00,South,180,9.0,11.0,78,0.00,,,0.00,Rainwise IP-100,2013-09-12 05:01:00,
2013-09-12 01:06:00,71.0,63.0,30.00,South,180,9.0,13.0,78,0.00,,,0.00,Rainwise IP-100,2013-09-12 05:06:00,
2013-09-12 01:11:00,71.0,62.0,29.99,SW,225,9.0,15.0,75,0.00,,,0.00,Rainwise IP-100,2013-09-12 05:11:00,
2013-09-12 01:16:00,71.0,63.0,29.99,SE,135,2.0,12.0,76,0.00,,,0.00,Rainwise IP-100,2013-09-12 05:16:00,
2013-09-12 01:21:00,72.0,64.0,29.98,South,180,6.0,9.0,76,0.00,,,0.00,Rainwise IP-100,2013-09-12 05:21:00,
2013-09-12 01:26:00,72.0,63.0,29.98,SW,225,7.0,10.0,74,0.00,,,0.00,Rainwise IP-100,2013-09-12 05:26:00,
2013-09-12 01:31:00,72.0,63.0,29.97,SSE,157,5.0,10.0,73,0.00,,,0.00,Rainwise IP-100,2013-09-12 05:31:00,
2013-09-12 01:36:00,72.0,63.0,29.97,South,180,3.0,25.0,73,0.00,,,0.00,Rainwise IP-100,2013-09-12 05:36:00,
2013-09-12 01:41:00,72.0,64.0,29.98,SW,225,2.0,6.0,76,0.00,,,0.00,Rainwise IP-100,2013-09-12 05:41:00,
2013-09-12 01:46:00,70.0,64.0,29.98,ESE,112,2.0,4.0,82,0.00,,,0.00,Rainwise IP-100,2013-09-12 05:46:00,
2013-09-12 01:51:00,70.0,64.0,29.98,SSW,202,0.0,5.0,83,0.00,,,0.00,Rainwise IP-100,2013-09-12 05:51:00,
2013-09-12 01:56:00,69.0,63.0,29.98,SSW,202,0.0,0.0,83,0.00,,,0.00,Rainwise IP-100,2013-09-12 05:56:00,
2013-09-12 02:01:00,69.0,64.0,29.98,SE,135,2.0,4.0,86,0.00,,,0.00,Rainwise IP-100,2013-09-12 06:01:00,
2013-09-12 02:06:00,69.0,64.0,29.98,ESE,112,6.0,7.0,85,0.00,,,0.00,Rainwise IP-100,2013-09-12 06:06:00,
2013-09-12 02:11:00,69.0,65.0,29.98,NW,315,1.0,7.0,87,0.00,,,0.00,Rainwise IP-100,2013-09-12 06:11:00,
2013-09-12 02:16:00,68.0,64.0,29.98,ENE,67,3.0,4.0,89,0.00,,,0.00,Rainwise IP-100,2013-09-12 06:16:00,
2013-09-12 02:21:00,68.0,65.0,29.98,East,90,3.0,6.0,90,0.00,,,0.00,Rainwise IP-100,2013-09-12 06:21:00,
2013-09-12 02:26:00,67.0,65.0,29.98,NE,45,1.0,6.0,92,0.00,,,0.00,Rainwise IP-100,2013-09-12 06:26:00,
2013-09-12 02:31:00,67.0,65.0,29.98,NE,45,0.0,2.0,93,0.00,,,0.00,Rainwise IP-100,2013-09-12 06:31:00,
2013-09-12 02:36:00,67.0,65.0,29.98,NE,45,0.0,0.0,94,0.00,,,0.00,Rainwise IP-100,2013-09-12 06:36:00,
2013-09-12 02:41:00,67.0,66.0,29.98,NE,45,2.0,3.0,95,0.00,,,0.00,Rainwise IP-100,2013-09-12 06:41:00,
2013-09-12 02:46:00,67.0,66.0,29.98,NE,45,0.0,3.0,95,0.00,,,0.00,Rainwise IP-100,2013-09-12 06:46:00,
2013-09-12 02:51:00,67.0,66.0,29.99,NE,45,0.0,1.0,95,0.00,,,0.00,Rainwise IP-100,2013-09-12 06:51:00,
2013-09-12 02:56:00,66.0,64.0,29.99,NE,45,0.0,3.0,96,0.00,,,0.00,Rainwise IP-100,2013-09-12 06:56:00,
2013-09-12 03:01:00,66.0,64.0,29.99,NE,45,0.0,1.0,96,0.00,,,0.00,Rainwise IP-100,2013-09-12 07:01:00,
2013-09-12 03:06:00,66.0,64.0,29.99,East,90,0.0,4.0,96,0.00,,,0.00,Rainwise IP-100,2013-09-12 07:06:00,
2013-09-12 03:11:00,66.0,64.0,29.99,ENE,67,2.0,4.0,96,0.00,,,0.00,Rainwise IP-100,2013-09-12 07:11:00,
2013-09-12 03:16:00,66.0,65.0,29.99,ENE,67,0.0,3.0,97,0.00,,,0.00,Rainwise IP-100,2013-09-12 07:16:00,
2013-09-12 03:21:00,66.0,65.0,30.01,ENE,67,2.0,2.0,98,0.00,,,0.00,Rainwise IP-100,2013-09-12 07:21:00,
2013-09-12 03:26:00,66.0,65.0,30.01,ENE,67,1.0,4.0,98,0.00,,,0.00,Rainwise IP-100,2013-09-12 07:26:00,
2013-09-12 03:31:00,66.0,65.0,30.01,ENE,67,0.0,3.0,98,0.00,,,0.00,Rainwise IP-100,2013-09-12 07:31:00,
2013-09-12 03:36:00,66.0,65.0,30.01,North,360,4.0,4.0,99,0.00,,,0.00,Rainwise IP-100,2013-09-12 07:36:00,
2013-09-12 03:41:00,66.0,65.0,30.01,NNW,337,0.0,6.0,99,0.00,,,0.00,Rainwise IP-100,2013-09-12 07:41:00,
2013-09-12 03:46:00,66.0,65.0,30.01,NNW,337,0.0,2.0,99,0.00,,,0.00,Rainwise IP-100,2013-09-12 07:46:00,
2013-09-12 03:51:00,66.0,65.0,30.02,NNW,337,0.0,1.0,99,0.00,,,0.00,Rainwise IP-100,2013-09-12 07:51:00,
2013-09-12 03:56:00,66.0,65.0,30.02,South,180,4.0,4.0,99,0.00,,,0.00,Rainwise IP-100,2013-09-12 07:56:00,
2013-09-12 04:01:00,66.0,65.0,30.02,SE,135,1.0,4.0,99,0.18,,,0.03,Rainwise IP-100,2013-09-12 08:01:00,
2013-09-12 04:06:00,66.0,65.0,30.02,SE,135,6.0,6.0,99,0.18,,,0.03,Rainwise IP-100,2013-09-12 08:06:00,
2013-09-12 04:11:00,66.0,65.0,30.02,ESE,112,0.0,6.0,99,0.00,,,0.03,Rainwise IP-100,2013-09-12 08:11:00,
2013-09-12 04:16:00,65.0,64.0,30.02,ESE,112,0.0,1.0,99,0.00,,,0.03,Rainwise IP-100,2013-09-12 08:16:00,
2013-09-12 04:21:00,65.0,64.0,30.01,WSW,247,6.0,7.0,99,0.00,,,0.03,Rainwise IP-100,2013-09-12 08:21:00,
2013-09-12 04:26:00,65.0,64.0,30.01,WNW,292,3.0,7.0,99,0.00,,,0.03,Rainwise IP-100,2013-09-12 08:26:00,
2013-09-12 04:31:00,65.0,64.0,30.02,WSW,247,0.0,6.0,99,0.00,,,0.03,Rainwise IP-100,2013-09-12 08:31:00,
2013-09-12 04:36:00,65.0,64.0,30.02,NW,315,4.0,0.0,99,0.00,,,0.03,Rainwise IP-100,2013-09-12 08:36:00,
2013-09-12 04:41:00,65.0,64.0,30.01,SSW,202,2.0,6.0,99,0.00,,,0.03,Rainwise IP-100,2013-09-12 08:41:00,
2013-09-12 04:46:00,65.0,64.0,30.01,West,270,7.0,7.0,99,0.00,,,0.03,Rainwise IP-100,2013-09-12 08:46:00,
2013-09-12 04:51:00,65.0,64.0,30.01,NW,315,4.0,9.0,99,0.00,,,0.03,Rainwise IP-100,2013-09-12 08:51:00,
2013-09-12 04:56:00,65.0,64.0,30.01,SE,135,6.0,6.0,99,0.00,,,0.03,Rainwise IP-100,2013-09-12 08:56:00,
2013-09-12 05:01:00,65.0,64.0,30.01,South,180,0.0,6.0,99,0.00,,,0.03,Rainwise IP-100,2013-09-12 09:01:00,
2013-09-12 05:06:00,65.0,64.0,30.01,SSE,157,2.0,4.0,99,0.00,,,0.03,Rainwise IP-100,2013-09-12 09:06:00,
2013-09-12 05:11:00,65.0,64.0,30.01,NNW,337,4.0,6.0,99,0.00,,,0.03,Rainwise IP-100,2013-09-12 09:11:00,
2013-09-12 05:16:00,65.0,64.0,30.01,NNW,337,0.0,5.0,99,0.00,,,0.03,Rainwise IP-100,2013-09-12 09:16:00,
2013-09-12 05:21:00,65.0,64.0,30.01,ESE,112,3.0,4.0,99,0.00,,,0.03,Rainwise IP-100,2013-09-12 09:21:00,
2013-09-12 05:26:00,65.0,64.0,30.01,ESE,112,1.0,4.0,99,0.00,,,0.03,Rainwise IP-100,2013-09-12 09:26:00,
2013-09-12 05:31:00,65.0,64.0,30.01,ESE,112,2.0,4.0,99,0.00,,,0.03,Rainwise IP-100,2013-09-12 09:31:00,
2013-09-12 05:36:00,65.0,64.0,30.01,SW,225,3.0,3.0,99,0.00,,,0.03,Rainwise IP-100,2013-09-12 09:36:00,
2013-09-12 05:41:00,65.0,64.0,30.01,SW,225,0.0,4.0,99,0.00,,,0.03,Rainwise IP-100,2013-09-12 09:41:00,
2013-09-12 05:46:00,65.0,64.0,30.01,East,90,1.0,5.0,99,0.00,,,0.03,Rainwise IP-100,2013-09-12 09:46:00,
2013-09-12 05:51:00,65.0,64.0,30.01,NW,315,0.0,4.0,99,0.00,,,0.03,Rainwise IP-100,2013-09-12 09:51:00,
2013-09-12 05:56:00,65.0,64.0,30.01,SW,225,2.0,5.0,99,0.00,,,0.03,Rainwise IP-100,2013-09-12 09:56:00,
2013-09-12 06:01:00,65.0,64.0,30.00,South,180,8.0,8.0,99,0.00,,,0.03,Rainwise IP-100,2013-09-12 10:01:00,
2013-09-12 06:06:00,65.0,64.0,30.00,South,180,2.0,9.0,99,0.00,,,0.03,Rainwise IP-100,2013-09-12 10:06:00,
2013-09-12 06:11:00,65.0,64.0,30.00,WNW,292,1.0,4.0,99,0.00,,,0.03,Rainwise IP-100,2013-09-12 10:11:00,
2013-09-12 06:16:00,64.0,63.0,30.00,NW,315,0.0,4.0,98,0.00,,,0.03,Rainwise IP-100,2013-09-12 10:16:00,
2013-09-12 06:21:00,65.0,64.0,30.00,East,90,4.0,4.0,99,0.00,,,0.03,Rainwise IP-100,2013-09-12 10:21:00,
2013-09-12 06:26:00,64.0,63.0,30.00,ESE,112,4.0,6.0,98,0.00,,,0.03,Rainwise IP-100,2013-09-12 10:26:00,
2013-09-12 06:31:00,64.0,63.0,30.00,SSE,157,4.0,6.0,98,0.00,,,0.03,Rainwise IP-100,2013-09-12 10:31:00,
2013-09-12 06:36:00,64.0,63.0,30.00,South,180,3.0,6.0,98,0.00,,,0.03,Rainwise IP-100,2013-09-12 10:36:00,
2013-09-12 06:41:00,64.0,63.0,29.99,SSE,157,3.0,4.0,98,0.00,,,0.03,Rainwise IP-100,2013-09-12 10:41:00,
2013-09-12 06:46:00,65.0,64.0,29.99,SSE,157,6.0,6.0,99,0.00,,,0.03,Rainwise IP-100,2013-09-12 10:46:00,
2013-09-12 06:51:00,65.0,64.0,29.99,South,180,5.0,7.0,99,0.00,,,0.03,Rainwise IP-100,2013-09-12 10:51:00,
2013-09-12 06:56:00,65.0,64.0,29.99,South,180,6.0,6.0,99,0.00,,,0.03,Rainwise IP-100,2013-09-12 10:56:00,
2013-09-12 07:01:00,65.0,64.0,29.98,SSE,157,5.0,7.0,99,0.00,,,0.03,Rainwise IP-100,2013-09-12 11:01:00,
2013-09-12 07:06:00,65.0,64.0,29.98,South,180,4.0,8.0,99,0.00,,,0.03,Rainwise IP-100,2013-09-12 11:06:00,
2013-09-12 07:11:00,65.0,64.0,29.98,SSW,202,4.0,7.0,99,0.00,,,0.03,Rainwise IP-100,2013-09-12 11:11:00,
2013-09-12 07:16:00,65.0,64.0,29.98,SW,225,4.0,6.0,99,0.00,,,0.03,Rainwise IP-100,2013-09-12 11:16:00,
2013-09-12 07:21:00,65.0,64.0,29.98,South,180,6.0,6.0,99,0.00,,,0.03,Rainwise IP-100,2013-09-12 11:21:00,
2013-09-12 07:26:00,65.0,64.0,29.98,South,180,5.0,7.0,99,0.00,,,0.03,Rainwise IP-100,2013-09-12 11:26:00,
2013-09-12 07:31:00,65.0,64.0,29.98,South,180,4.0,6.0,99,0.00,,,0.03,Rainwise IP-100,2013-09-12 11:31:00,
2013-09-12 07:36:00,65.0,64.0,29.98,West,270,1.0,5.0,99,0.00,,,0.03,Rainwise IP-100,2013-09-12 11:36:00,
2013-09-12 07:41:00,65.0,64.0,29.97,West,270,0.0,2.0,99,0.00,,,0.03,Rainwise IP-100,2013-09-12 11:41:00,
2013-09-12 07:46:00,65.0,64.0,29.97,NW,315,3.0,0.0,99,0.00,,,0.03,Rainwise IP-100,2013-09-12 11:46:00,
2013-09-12 07:51:00,65.0,64.0,29.96,NW,315,3.0,4.0,99,0.00,,,0.03,Rainwise IP-100,2013-09-12 11:51:00,
2013-09-12 07:56:00,66.0,65.0,29.96,NW,315,0.0,4.0,99,0.00,,,0.03,Rainwise IP-100,2013-09-12 11:56:00,
2013-09-12 08:01:00,66.0,65.0,29.96,NW,315,0.0,0.0,99,0.00,,,0.03,Rainwise IP-100,2013-09-12 12:01:00,
2013-09-12 08:06:00,67.0,66.0,29.96,SW,225,4.0,9.0,99,0.00,,,0.03,Rainwise IP-100,2013-09-12 12:06:00,
2013-09-12 08:11:00,68.0,66.0,29.95,SSW,202,7.0,10.0,95,0.00,,,0.03,Rainwise IP-100,2013-09-12 12:11:00,
2013-09-12 08:16:00,69.0,66.0,29.95,SSW,202,7.0,12.0,91,0.00,,,0.03,Rainwise IP-100,2013-09-12 12:16:00,
2013-09-12 08:21:00,69.0,66.0,29.94,SW,225,2.0,13.0,91,0.00,,,0.03,Rainwise IP-100,2013-09-12 12:21:00,
2013-09-12 08:26:00,69.0,66.0,29.94,SW,225,4.0,10.0,92,0.00,,,0.03,Rainwise IP-100,2013-09-12 12:26:00,
2013-09-12 08:31:00,70.0,66.0,29.94,SSW,202,9.0,12.0,89,0.00,,,0.03,Rainwise IP-100,2013-09-12 12:31:00,
2013-09-12 08:36:00,70.0,66.0,29.94,SW,225,9.0,13.0,88,0.00,,,0.03,Rainwise IP-100,2013-09-12 12:36:00,
2013-09-12 08:41:00,71.0,67.0,29.92,SW,225,9.0,13.0,88,0.00,,,0.03,Rainwise IP-100,2013-09-12 12:41:00,
2013-09-12 08:46:00,71.0,66.0,29.92,SSW,202,6.0,12.0,86,0.00,,,0.03,Rainwise IP-100,2013-09-12 12:46:00,
2013-09-12 08:51:00,71.0,66.0,29.93,SSW,202,6.0,12.0,86,0.00,,,0.03,Rainwise IP-100,2013-09-12 12:51:00,
2013-09-12 08:56:00,71.0,66.0,29.93,SSW,202,7.0,12.0,87,0.00,,,0.03,Rainwise IP-100,2013-09-12 12:56:00,
2013-09-12 09:01:00,71.0,66.0,29.92,South,180,8.0,13.0,87,0.00,,,0.03,Rainwise IP-100,2013-09-12 13:01:00,
2013-09-12 09:06:00,71.0,67.0,29.92,SSW,202,8.0,11.0,88,0.00,,,0.03,Rainwise IP-100,2013-09-12 13:06:00,
2013-09-12 09:11:00,71.0,67.0,29.92,SSW,202,7.0,9.0,89,0.00,,,0.03,Rainwise IP-100,2013-09-12 13:11:00,
2013-09-12 09:16:00,71.0,67.0,29.92,WSW,247,3.0,10.0,89,0.00,,,0.03,Rainwise IP-100,2013-09-12 13:16:00,
2013-09-12 09:21:00,71.0,67.0,29.92,SW,225,4.0,10.0,89,0.00,,,0.03,Rainwise IP-100,2013-09-12 13:21:00,
2013-09-12 09:26:00,71.0,67.0,29.92,SSW,202,7.0,9.0,89,0.00,,,0.03,Rainwise IP-100,2013-09-12 13:26:00,
2013-09-12 09:31:00,71.0,67.0,29.92,SSW,202,6.0,12.0,88,0.00,,,0.03,Rainwise IP-100,2013-09-12 13:31:00,
2013-09-12 09:36:00,71.0,66.0,29.92,SW,225,6.0,10.0,87,0.00,,,0.03,Rainwise IP-100,2013-09-12 13:36:00,
2013-09-12 09:41:00,71.0,66.0,29.92,SW,225,8.0,10.0,87,0.00,,,0.03,Rainwise IP-100,2013-09-12 13:41:00,
2013-09-12 09:46:00,71.0,67.0,29.92,WSW,247,3.0,9.0,88,0.00,,,0.03,Rainwise IP-100,2013-09-12 13:46:00,
2013-09-12 09:51:00,71.0,67.0,29.92,SW,225,4.0,7.0,89,0.00,,,0.03,Rainwise IP-100,2013-09-12 13:51:00,
2013-09-12 09:56:00,71.0,67.0,29.92,West,270,4.0,9.0,88,0.00,,,0.03,Rainwise IP-100,2013-09-12 13:56:00,
2013-09-12 10:01:00,71.0,67.0,29.92,West,270,3.0,9.0,88,0.00,,,0.03,Rainwise IP-100,2013-09-12 14:01:00,
2013-09-12 10:06:00,71.0,66.0,29.92,SW,225,8.0,11.0,87,0.00,,,0.03,Rainwise IP-100,2013-09-12 14:06:00,
2013-09-12 10:11:00,71.0,66.0,29.92,SW,225,5.0,8.0,87,0.00,,,0.03,Rainwise IP-100,2013-09-12 14:11:00,
2013-09-12 10:16:00,71.0,66.0,29.92,WSW,247,6.0,8.0,87,0.00,,,0.03,Rainwise IP-100,2013-09-12 14:16:00,
2013-09-12 10:21:00,71.0,66.0,29.91,WSW,247,5.0,7.0,86,0.00,,,0.03,Rainwise IP-100,2013-09-12 14:21:00,
2013-09-12 10:26:00,72.0,68.0,29.91,SW,225,4.0,8.0,88,0.00,,,0.03,Rainwise IP-100,2013-09-12 14:26:00,
2013-09-12 10:31:00,72.0,68.0,29.90,WSW,247,6.0,6.0,88,0.00,,,0.03,Rainwise IP-100,2013-09-12 14:31:00,
2013-09-12 10:36:00,72.0,67.0,29.90,SW,225,6.0,10.0,86,0.00,,,0.03,Rainwise IP-100,2013-09-12 14:36:00,
2013-09-12 10:41:00,73.0,68.0,29.90,SSW,202,5.0,12.0,84,0.00,,,0.03,Rainwise IP-100,2013-09-12 14:41:00,
2013-09-12 10:46:00,73.0,67.0,29.90,SSW,202,7.0,12.0,82,0.00,,,0.03,Rainwise IP-100,2013-09-12 14:46:00,
2013-09-12 10:51:00,73.0,67.0,29.90,WSW,247,8.0,10.0,83,0.00,,,0.03,Rainwise IP-100,2013-09-12 14:51:00,
2013-09-12 10:56:00,73.0,67.0,29.90,SSW,202,7.0,11.0,83,0.00,,,0.03,Rainwise IP-100,2013-09-12 14:56:00,
2013-09-12 11:01:00,73.0,67.0,29.89,WSW,247,2.0,12.0,82,0.00,,,0.03,Rainwise IP-100,2013-09-12 15:01:00,
2013-09-12 11:06:00,73.0,67.0,29.89,WSW,247,7.0,11.0,83,0.00,,,0.03,Rainwise IP-100,2013-09-12 15:06:00,
2013-09-12 11:11:00,73.0,67.0,29.89,WSW,247,6.0,7.0,83,0.00,,,0.03,Rainwise IP-100,2013-09-12 15:11:00,
2013-09-12 11:16:00,73.0,67.0,29.89,West,270,5.0,7.0,82,0.00,,,0.03,Rainwise IP-100,2013-09-12 15:16:00,
2013-09-12 11:21:00,73.0,67.0,29.89,WNW,292,4.0,9.0,83,0.00,,,0.03,Rainwise IP-100,2013-09-12 15:21:00,
2013-09-12 11:26:00,73.0,67.0,29.89,SW,225,6.0,8.0,83,0.00,,,0.03,Rainwise IP-100,2013-09-12 15:26:00,
2013-09-12 11:31:00,73.0,67.0,29.89,SW,225,6.0,8.0,82,0.00,,,0.03,Rainwise IP-100,2013-09-12 15:31:00,
2013-09-12 11:36:00,73.0,67.0,29.89,SW,225,4.0,7.0,83,0.00,,,0.03,Rainwise IP-100,2013-09-12 15:36:00,
2013-09-12 11:41:00,74.0,69.0,29.88,WSW,247,0.0,9.0,85,0.00,,,0.03,Rainwise IP-100,2013-09-12 15:41:00,
2013-09-12 11:46:00,74.0,68.0,29.88,WSW,247,3.0,9.0,82,0.00,,,0.03,Rainwise IP-100,2013-09-12 15:46:00,
2013-09-12 11:51:00,74.0,67.0,29.88,SW,225,6.0,8.0,80,0.00,,,0.03,Rainwise IP-100,2013-09-12 15:51:00,
2013-09-12 11:56:00,74.0,68.0,29.88,SW,225,4.0,7.0,82,0.00,,,0.03,Rainwise IP-100,2013-09-12 15:56:00,
2013-09-12 12:01:00,74.0,67.0,29.87,SW,225,7.0,7.0,79,0.00,,,0.03,Rainwise IP-100,2013-09-12 16:01:00,
2013-09-12 12:06:00,75.0,68.0,29.87,SW,225,10.0,11.0,80,0.00,,,0.03,Rainwise IP-100,2013-09-12 16:06:00,
2013-09-12 12:11:00,75.0,67.0,29.86,SW,225,9.0,17.0,77,0.00,,,0.03,Rainwise IP-100,2013-09-12 16:11:00,
2013-09-12 12:16:00,75.0,67.0,29.86,SW,225,10.0,15.0,76,0.00,,,0.03,Rainwise IP-100,2013-09-12 16:16:00,
2013-09-12 12:21:00,75.0,68.0,29.86,SW,225,7.0,12.0,78,0.00,,,0.03,Rainwise IP-100,2013-09-12 16:21:00,
2013-09-12 12:26:00,75.0,66.0,29.86,SSW,202,6.0,12.0,75,0.00,,,0.03,Rainwise IP-100,2013-09-12 16:26:00,
2013-09-12 12:31:00,75.0,67.0,29.86,WSW,247,8.0,15.0,76,0.00,,,0.03,Rainwise IP-100,2013-09-12 16:31:00,
2013-09-12 12:36:00,75.0,67.0,29.86,SW,225,5.0,12.0,77,0.00,,,0.03,Rainwise IP-100,2013-09-12 16:36:00,
2013-09-12 12:41:00,75.0,67.0,29.86,SW,225,10.0,10.0,77,0.00,,,0.03,Rainwise IP-100,2013-09-12 16:41:00,
2013-09-12 12:46:00,74.0,66.0,29.86,SW,225,7.0,14.0,76,0.00,,,0.03,Rainwise IP-100,2013-09-12 16:46:00,
2013-09-12 12:51:00,74.0,66.0,29.86,West,270,7.0,17.0,76,0.00,,,0.03,Rainwise IP-100,2013-09-12 16:51:00,
2013-09-12 12:56:00,75.0,67.0,29.86,SSW,202,7.0,12.0,77,0.00,,,0.03,Rainwise IP-100,2013-09-12 16:56:00,
2013-09-12 13:01:00,75.0,67.0,29.85,WSW,247,4.0,12.0,77,0.00,,,0.03,Rainwise IP-100,2013-09-12 17:01:00,
2013-09-12 13:06:00,75.0,66.0,29.85,South,180,5.0,12.0,75,0.00,,,0.03,Rainwise IP-100,2013-09-12 17:06:00,
2013-09-12 13:11:00,75.0,66.0,29.85,SW,225,6.0,12.0,75,0.00,,,0.03,Rainwise IP-100,2013-09-12 17:11:00,
2013-09-12 13:16:00,75.0,66.0,29.85,SSW,202,8.0,19.0,74,0.00,,,0.03,Rainwise IP-100,2013-09-12 17:16:00,
2013-09-12 13:21:00,76.0,67.0,29.84,SSW,202,10.0,13.0,75,0.00,,,0.03,Rainwise IP-100,2013-09-12 17:21:00,
2013-09-12 13:26:00,75.0,66.0,29.84,SW,225,10.0,14.0,73,0.00,,,0.03,Rainwise IP-100,2013-09-12 17:26:00,
2013-09-12 13:31:00,76.0,66.0,29.84,West,270,8.0,14.0,73,0.00,,,0.03,Rainwise IP-100,2013-09-12 17:31:00,
2013-09-12 13:36:00,76.0,67.0,29.84,SW,225,5.0,12.0,75,0.00,,,0.03,Rainwise IP-100,2013-09-12 17:36:00,
2013-09-12 13:41:00,76.0,67.0,29.84,SW,225,9.0,13.0,75,0.00,,,0.03,Rainwise IP-100,2013-09-12 17:41:00,
2013-09-12 13:46:00,76.0,67.0,29.84,West,270,1.0,9.0,75,0.00,,,0.03,Rainwise IP-100,2013-09-12 17:46:00,
2013-09-12 13:51:00,76.0,67.0,29.83,SW,225,2.0,6.0,74,0.00,,,0.03,Rainwise IP-100,2013-09-12 17:51:00,
2013-09-12 13:56:00,76.0,67.0,29.83,SW,225,5.0,7.0,76,0.00,,,0.03,Rainwise IP-100,2013-09-12 17:56:00,
2013-09-12 14:01:00,77.0,68.0,29.82,WSW,247,6.0,12.0,74,0.00,,,0.03,Rainwise IP-100,2013-09-12 18:01:00,
2013-09-12 14:06:00,76.0,67.0,29.82,SW,225,6.0,14.0,75,0.00,,,0.03,Rainwise IP-100,2013-09-12 18:06:00,
2013-09-12 14:11:00,77.0,68.0,29.82,WSW,247,7.0,9.0,74,0.00,,,0.03,Rainwise IP-100,2013-09-12 18:11:00,
2013-09-12 14:16:00,76.0,66.0,29.82,SSW,202,9.0,10.0,73,0.00,,,0.03,Rainwise IP-100,2013-09-12 18:16:00,
2013-09-12 14:21:00,76.0,67.0,29.82,SSE,157,6.0,11.0,76,0.00,,,0.03,Rainwise IP-100,2013-09-12 18:21:00,
2013-09-12 14:26:00,77.0,68.0,29.82,SW,225,6.0,13.0,74,0.00,,,0.03,Rainwise IP-100,2013-09-12 18:26:00,
2013-09-12 14:31:00,77.0,68.0,29.80,SW,225,6.0,11.0,74,0.00,,,0.03,Rainwise IP-100,2013-09-12 18:31:00,
2013-09-12 14:36:00,77.0,68.0,29.80,West,270,6.0,11.0,73,0.00,,,0.03,Rainwise IP-100,2013-09-12 18:36:00,
2013-09-12 14:41:00,77.0,68.0,29.80,WSW,247,6.0,9.0,74,0.00,,,0.03,Rainwise IP-100,2013-09-12 18:41:00,
2013-09-12 14:46:00,77.0,69.0,29.80,SW,225,4.0,9.0,76,0.00,,,0.03,Rainwise IP-100,2013-09-12 18:46:00,
2013-09-12 14:51:00,77.0,68.0,29.78,West,270,0.0,9.0,73,0.00,,,0.03,Rainwise IP-100,2013-09-12 18:51:00,
2013-09-12 14:56:00,78.0,68.0,29.78,WNW,292,0.0,6.0,71,0.00,,,0.03,Rainwise IP-100,2013-09-12 18:56:00,
2013-09-12 15:01:00,78.0,68.0,29.78,East,90,1.0,0.0,71,0.00,,,0.03,Rainwise IP-100,2013-09-12 19:01:00,
2013-09-12 15:06:00,78.0,68.0,29.78,NNE,22,3.0,7.0,71,0.00,,,0.03,Rainwise IP-100,2013-09-12 19:06:00,
2013-09-12 15:11:00,76.0,68.0,29.78,NNW,337,11.0,16.0,78,0.00,,,0.03,Rainwise IP-100,2013-09-12 19:11:00,
2013-09-12 15:16:00,71.0,68.0,29.78,NW,315,18.0,28.0,91,0.18,,,0.09,Rainwise IP-100,2013-09-12 19:16:00,
2013-09-12 15:21:00,68.0,66.0,29.84,WSW,247,12.0,26.0,96,2.04,,,0.45,Rainwise IP-100,2013-09-12 19:21:00,
2013-09-12 15:26:00,68.0,67.0,29.84,East,90,3.0,22.0,99,3.84,,,0.70,Rainwise IP-100,2013-09-12 19:26:00,
2013-09-12 15:31:00,67.0,66.0,29.81,ESE,112,2.0,7.0,99,2.04,,,0.71,Rainwise IP-100,2013-09-12 19:31:00,
2013-09-12 15:36:00,67.0,66.0,29.81,SE,135,2.0,6.0,99,0.06,,,0.71,Rainwise IP-100,2013-09-12 19:36:00,
2013-09-12 15:41:00,68.0,67.0,29.81,SSE,157,6.0,6.0,99,0.00,,,0.71,Rainwise IP-100,2013-09-12 19:41:00,
2013-09-12 15:46:00,68.0,67.0,29.81,SE,135,6.0,6.0,99,0.00,,,0.71,Rainwise IP-100,2013-09-12 19:46:00,
2013-09-12 15:51:00,68.0,67.0,29.82,South,180,6.0,9.0,99,0.00,,,0.71,Rainwise IP-100,2013-09-12 19:51:00,
2013-09-12 15:56:00,68.0,67.0,29.82,SSW,202,7.0,10.0,99,0.00,,,0.71,Rainwise IP-100,2013-09-12 19:56:00,
2013-09-12 16:01:00,69.0,68.0,29.79,SSE,157,3.0,11.0,99,0.00,,,0.71,Rainwise IP-100,2013-09-12 20:01:00,
2013-09-12 16:06:00,69.0,68.0,29.79,SE,135,4.0,7.0,99,0.00,,,0.71,Rainwise IP-100,2013-09-12 20:06:00,
2013-09-12 16:11:00,69.0,68.0,29.79,NNW,337,7.0,7.0,99,0.00,,,0.71,Rainwise IP-100,2013-09-12 20:11:00,
2013-09-12 16:16:00,69.0,68.0,29.79,NE,45,0.0,10.0,99,0.00,,,0.71,Rainwise IP-100,2013-09-12 20:16:00,
2013-09-12 16:21:00,69.0,68.0,29.80,NE,45,4.0,5.0,99,0.00,,,0.71,Rainwise IP-100,2013-09-12 20:21:00,
2013-09-12 16:26:00,68.0,67.0,29.80,NE,45,0.0,6.0,99,0.00,,,0.71,Rainwise IP-100,2013-09-12 20:26:00,
2013-09-12 16:31:00,69.0,68.0,29.80,North,360,0.0,2.0,99,0.00,,,0.71,Rainwise IP-100,2013-09-12 20:31:00,
2013-09-12 16:36:00,69.0,68.0,29.80,East,90,2.0,2.0,99,0.00,,,0.71,Rainwise IP-100,2013-09-12 20:36:00,
2013-09-12 16:41:00,69.0,68.0,29.79,East,90,0.0,5.0,99,0.00,,,0.71,Rainwise IP-100,2013-09-12 20:41:00,
2013-09-12 16:46:00,69.0,68.0,29.79,East,90,3.0,3.0,99,0.00,,,0.71,Rainwise IP-100,2013-09-12 20:46:00,
2013-09-12 16:51:00,70.0,69.0,29.79,East,90,0.0,3.0,99,0.00,,,0.71,Rainwise IP-100,2013-09-12 20:51:00,
2013-09-12 16:56:00,69.0,68.0,29.79,NW,315,5.0,6.0,99,0.00,,,0.71,Rainwise IP-100,2013-09-12 20:56:00,
2013-09-12 17:01:00,69.0,68.0,29.80,NW,315,2.0,7.0,99,0.00,,,0.71,Rainwise IP-100,2013-09-12 21:01:00,
2013-09-12 17:06:00,69.0,68.0,29.80,NW,315,1.0,2.0,99,0.00,,,0.71,Rainwise IP-100,2013-09-12 21:06:00,
2013-09-12 17:11:00,69.0,68.0,29.79,North,360,0.0,2.0,99,0.00,,,0.71,Rainwise IP-100,2013-09-12 21:11:00,
2013-09-12 17:16:00,69.0,68.0,29.79,North,360,3.0,4.0,99,0.00,,,0.72,Rainwise IP-100,2013-09-12 21:16:00,
2013-09-12 17:21:00,69.0,68.0,29.78,North,360,0.0,4.0,99,0.18,,,0.74,Rainwise IP-100,2013-09-12 21:21:00,
2013-09-12 17:26:00,69.0,68.0,29.78,ESE,112,0.0,7.0,99,0.18,,,0.74,Rainwise IP-100,2013-09-12 21:26:00,
2013-09-12 17:31:00,69.0,68.0,29.78,SW,225,3.0,6.0,99,0.00,,,0.74,Rainwise IP-100,2013-09-12 21:31:00,
2013-09-12 17:36:00,69.0,68.0,29.78,SW,225,0.0,5.0,99,0.00,,,0.74,Rainwise IP-100,2013-09-12 21:36:00,
2013-09-12 17:41:00,69.0,68.0,29.78,SW,225,3.0,3.0,99,0.00,,,0.74,Rainwise IP-100,2013-09-12 21:41:00,
2013-09-12 17:46:00,69.0,68.0,29.78,SW,225,1.0,5.0,99,0.00,,,0.74,Rainwise IP-100,2013-09-12 21:46:00,
2013-09-12 17:51:00,69.0,68.0,29.77,South,180,4.0,6.0,99,0.00,,,0.74,Rainwise IP-100,2013-09-12 21:51:00,
2013-09-12 17:56:00,69.0,68.0,29.77,South,180,1.0,6.0,99,0.00,,,0.74,Rainwise IP-100,2013-09-12 21:56:00,
2013-09-12 18:01:00,69.0,68.0,29.78,SE,135,6.0,6.0,99,0.00,,,0.74,Rainwise IP-100,2013-09-12 22:01:00,
2013-09-12 18:06:00,69.0,68.0,29.78,NNW,337,4.0,6.0,99,0.00,,,0.74,Rainwise IP-100,2013-09-12 22:06:00,
2013-09-12 18:11:00,69.0,68.0,29.79,NNW,337,0.0,4.0,99,0.00,,,0.74,Rainwise IP-100,2013-09-12 22:11:00,
2013-09-12 18:16:00,69.0,68.0,29.79,NNW,337,0.0,0.0,99,0.00,,,0.74,Rainwise IP-100,2013-09-12 22:16:00,
2013-09-12 18:21:00,69.0,68.0,29.79,NE,45,0.0,3.0,99,0.00,,,0.74,Rainwise IP-100,2013-09-12 22:21:00,
2013-09-12 18:26:00,69.0,68.0,29.79,ESE,112,2.0,5.0,99,0.00,,,0.74,Rainwise IP-100,2013-09-12 22:26:00,
2013-09-12 18:31:00,69.0,68.0,29.79,ESE,112,0.0,3.0,99,0.00,,,0.74,Rainwise IP-100,2013-09-12 22:31:00,
2013-09-12 18:36:00,68.0,67.0,29.79,ESE,112,0.0,4.0,99,0.00,,,0.74,Rainwise IP-100,2013-09-12 22:36:00,
2013-09-12 18:41:00,68.0,67.0,29.80,North,360,0.0,4.0,99,0.00,,,0.74,Rainwise IP-100,2013-09-12 22:41:00,
2013-09-12 18:46:00,68.0,67.0,29.80,North,360,0.0,3.0,99,0.00,,,0.74,Rainwise IP-100,2013-09-12 22:46:00,
2013-09-12 18:51:00,68.0,67.0,29.79,East,90,3.0,3.0,99,0.00,,,0.74,Rainwise IP-100,2013-09-12 22:51:00,
2013-09-12 18:56:00,68.0,67.0,29.79,East,90,2.0,5.0,99,0.00,,,0.74,Rainwise IP-100,2013-09-12 22:56:00,
2013-09-12 19:01:00,68.0,67.0,29.79,East,90,3.0,3.0,99,0.00,,,0.74,Rainwise IP-100,2013-09-12 23:01:00,
2013-09-12 19:06:00,68.0,67.0,29.79,East,90,1.0,3.0,99,0.00,,,0.74,Rainwise IP-100,2013-09-12 23:06:00,
2013-09-12 19:11:00,68.0,67.0,29.80,NE,45,1.0,3.0,99,0.00,,,0.74,Rainwise IP-100,2013-09-12 23:11:00,
2013-09-12 19:16:00,68.0,67.0,29.80,East,90,3.0,3.0,99,0.00,,,0.74,Rainwise IP-100,2013-09-12 23:16:00,
2013-09-12 19:21:00,68.0,67.0,29.79,East,90,4.0,5.0,99,0.00,,,0.74,Rainwise IP-100,2013-09-12 23:21:00,
2013-09-12 19:26:00,67.0,66.0,29.79,East,90,0.0,6.0,99,0.00,,,0.74,Rainwise IP-100,2013-09-12 23:26:00,
2013-09-12 19:31:00,67.0,66.0,29.80,North,360,4.0,4.0,99,0.00,,,0.74,Rainwise IP-100,2013-09-12 23:31:00,
2013-09-12 19:36:00,67.0,66.0,29.80,NW,315,3.0,6.0,99,0.00,,,0.74,Rainwise IP-100,2013-09-12 23:36:00,
2013-09-12 19:41:00,67.0,66.0,29.80,NW,315,0.0,6.0,99,0.00,,,0.74,Rainwise IP-100,2013-09-12 23:41:00,
2013-09-12 19:46:00,67.0,66.0,29.80,South,180,2.0,2.0,99,0.06,,,0.75,Rainwise IP-100,2013-09-12 23:46:00,
2013-09-12 19:51:00,66.0,65.0,29.81,SE,135,6.0,6.0,99,0.12,,,0.77,Rainwise IP-100,2013-09-12 23:51:00,
2013-09-12 19:56:00,66.0,65.0,29.81,SSE,157,4.0,7.0,99,0.12,,,0.77,Rainwise IP-100,2013-09-12 23:56:00,
2013-09-12 20:01:00,66.0,65.0,29.81,SSE,157,3.0,6.0,99,0.06,,,0.77,Rainwise IP-100,2013-09-13 00:01:00,
2013-09-12 20:06:00,66.0,65.0,29.81,South,180,3.0,5.0,99,0.00,,,0.77,Rainwise IP-100,2013-09-13 00:06:00,
2013-09-12 20:11:00,66.0,65.0,29.81,SSE,157,3.0,6.0,99,0.00,,,0.77,Rainwise IP-100,2013-09-13 00:11:00,
2013-09-12 20:16:00,66.0,65.0,29.81,SSE,157,5.0,6.0,99,0.00,,,0.77,Rainwise IP-100,2013-09-13 00:16:00,
2013-09-12 20:21:00,66.0,65.0,29.81,SSE,157,6.0,7.0,99,0.00,,,0.77,Rainwise IP-100,2013-09-13 00:21:00,
2013-09-12 20:26:00,66.0,65.0,29.81,South,180,5.0,6.0,99,0.00,,,0.77,Rainwise IP-100,2013-09-13 00:26:00,
2013-09-12 20:31:00,66.0,65.0,29.81,SSE,157,1.0,9.0,99,0.00,,,0.77,Rainwise IP-100,2013-09-13 00:31:00,
2013-09-12 20:36:00,65.0,64.0,29.81,SSE,157,2.0,5.0,99,0.00,,,0.77,Rainwise IP-100,2013-09-13 00:36:00,
2013-09-12 20:41:00,65.0,64.0,29.81,SSW,202,4.0,5.0,99,0.06,,,0.78,Rainwise IP-100,2013-09-13 00:41:00,
2013-09-12 20:46:00,65.0,64.0,29.81,South,180,1.0,4.0,99,0.06,,,0.78,Rainwise IP-100,2013-09-13 00:46:00,
2013-09-12 20:51:00,65.0,64.0,29.81,South,180,1.0,4.0,99,0.00,,,0.78,Rainwise IP-100,2013-09-13 00:51:00,
2013-09-12 20:56:00,65.0,64.0,29.81,SE,135,6.0,6.0,99,0.00,,,0.78,Rainwise IP-100,2013-09-13 00:56:00,
2013-09-12 21:01:00,65.0,64.0,29.80,South,180,4.0,7.0,99,0.00,,,0.78,Rainwise IP-100,2013-09-13 01:01:00,
2013-09-12 21:06:00,65.0,64.0,29.80,SSE,157,4.0,6.0,99,0.00,,,0.78,Rainwise IP-100,2013-09-13 01:06:00,
2013-09-12 21:11:00,65.0,64.0,29.79,SE,135,3.0,6.0,99,0.00,,,0.79,Rainwise IP-100,2013-09-13 01:11:00,
2013-09-12 21:16:00,65.0,64.0,29.79,SSE,157,2.0,6.0,99,0.06,,,0.79,Rainwise IP-100,2013-09-13 01:16:00,
2013-09-12 21:21:00,65.0,64.0,29.78,SSW,202,5.0,5.0,99,0.06,,,0.79,Rainwise IP-100,2013-09-13 01:21:00,
2013-09-12 21:26:00,65.0,64.0,29.78,SW,225,5.0,6.0,99,0.00,,,0.79,Rainwise IP-100,2013-09-13 01:26:00,
2013-09-12 21:31:00,65.0,64.0,29.78,SW,225,0.0,5.0,99,0.00,,,0.79,Rainwise IP-100,2013-09-13 01:31:00,
2013-09-12 21:36:00,65.0,64.0,29.78,SW,225,0.0,0.0,99,0.00,,,0.79,Rainwise IP-100,2013-09-13 01:36:00,
2013-09-12 21:41:00,65.0,64.0,29.78,WSW,247,2.0,3.0,99,0.00,,,0.79,Rainwise IP-100,2013-09-13 01:41:00,
2013-09-12 21:46:00,65.0,64.0,29.78,WSW,247,2.0,4.0,99,0.06,,,0.80,Rainwise IP-100,2013-09-13 01:46:00,
2013-09-12 21:51:00,65.0,64.0,29.80,West,270,2.0,4.0,99,0.06,,,0.80,Rainwise IP-100,2013-09-13 01:51:00,
2013-09-12 21:56:00,65.0,64.0,29.80,West,270,0.0,4.0,99,0.00,,,0.80,Rainwise IP-100,2013-09-13 01:56:00,
2013-09-12 22:01:00,65.0,64.0,29.79,West,270,0.0,1.0,99,0.00,,,0.80,Rainwise IP-100,2013-09-13 02:01:00,
2013-09-12 22:06:00,65.0,64.0,29.79,West,270,0.0,0.0,99,0.06,,,0.81,Rainwise IP-100,2013-09-13 02:06:00,
2013-09-12 22:11:00,65.0,64.0,29.78,South,180,2.0,4.0,99,0.06,,,0.81,Rainwise IP-100,2013-09-13 02:11:00,
2013-09-12 22:16:00,65.0,64.0,29.78,SSE,157,1.0,5.0,99,0.00,,,0.81,Rainwise IP-100,2013-09-13 02:16:00,
2013-09-12 22:21:00,65.0,64.0,29.78,SSW,202,3.0,4.0,99,0.00,,,0.81,Rainwise IP-100,2013-09-13 02:21:00,
2013-09-12 22:26:00,65.0,64.0,29.78,SW,225,3.0,6.0,99,0.00,,,0.81,Rainwise IP-100,2013-09-13 02:26:00,
2013-09-12 22:31:00,65.0,64.0,29.78,SW,225,1.0,6.0,99,0.00,,,0.81,Rainwise IP-100,2013-09-13 02:31:00,
2013-09-12 22:36:00,65.0,64.0,29.78,South,180,7.0,7.0,99,0.00,,,0.81,Rainwise IP-100,2013-09-13 02:36:00,
2013-09-12 22:41:00,65.0,64.0,29.77,SW,225,3.0,8.0,99,0.00,,,0.81,Rainwise IP-100,2013-09-13 02:41:00,
2013-09-12 22:46:00,65.0,64.0,29.77,SSW,202,6.0,7.0,99,0.00,,,0.81,Rainwise IP-100,2013-09-13 02:46:00,
2013-09-12 22:51:00,65.0,64.0,29.77,SW,225,6.0,7.0,99,0.00,,,0.81,Rainwise IP-100,2013-09-13 02:51:00,
2013-09-12 22:56:00,65.0,64.0,29.77,WSW,247,6.0,7.0,99,0.00,,,0.81,Rainwise IP-100,2013-09-13 02:56:00,
2013-09-12 23:01:00,65.0,64.0,29.77,SW,225,7.0,7.0,99,0.00,,,0.81,Rainwise IP-100,2013-09-13 03:01:00,
2013-09-12 23:06:00,65.0,64.0,29.77,West,270,3.0,7.0,99,0.00,,,0.81,Rainwise IP-100,2013-09-13 03:06:00,
2013-09-12 23:11:00,65.0,64.0,29.78,WSW,247,2.0,7.0,99,0.00,,,0.81,Rainwise IP-100,2013-09-13 03:11:00,
2013-09-12 23:16:00,65.0,64.0,29.78,South,180,2.0,6.0,99,0.00,,,0.81,Rainwise IP-100,2013-09-13 03:16:00,
2013-09-12 23:21:00,65.0,64.0,29.77,SE,135,6.0,7.0,99,0.00,,,0.81,Rainwise IP-100,2013-09-13 03:21:00,
2013-09-12 23:26:00,65.0,64.0,29.77,SSW,202,5.0,7.0,99,0.00,,,0.81,Rainwise IP-100,2013-09-13 03:26:00,
2013-09-12 23:31:00,65.0,64.0,29.77,SSE,157,5.0,6.0,99,0.00,,,0.81,Rainwise IP-100,2013-09-13 03:31:00,
2013-09-12 23:36:00,64.0,63.0,29.77,SSE,157,4.0,6.0,98,0.00,,,0.81,Rainwise IP-100,2013-09-13 03:36:00,
2013-09-12 23:41:00,64.0,63.0,29.76,SE,135,6.0,7.0,98,0.00,,,0.81,Rainwise IP-100,2013-09-13 03:41:00,
2013-09-12 23:46:00,64.0,63.0,29.76,South,180,6.0,7.0,98,0.00,,,0.81,Rainwise IP-100,2013-09-13 03:46:00,
2013-09-12 23:51:00,64.0,63.0,29.76,SSW,202,5.0,7.0,98,0.00,,,0.81,Rainwise IP-100,2013-09-13 03:51:00,
2013-09-12 23:56:00,64.0,63.0,29.76,SW,225,3.0,6.0,98,0.00,,,0.81,Rainwise IP-100,2013-09-13 03:56:00,